Theta_e
304 304 304 304 304 304 304 303 303 302 302 301 301 301 301 301 301 301 301 301 301 302 302 302 302 302 302 302 303 303 303 304 304 303 303 303 302 301 301 301 301 301 301 301 301 301 301 301 301 301 301 302 303 303 303 302 301 300 301 301 302 303 302 302 302 302 302 303 303 303 304 304 303 303 302 302 302 302 302 302 303 302 302 301 300 300 301 301 301 300 301 301 301 301 301 300 299 299 299 299 298 298 298
303 304 304 304 304 304 303 302 302 302 302 302 301 300 301 301 301 301 300 300 300 300 301 301 301 301 302 302 302 303 302 302 303 303 302 302 301 301 300 300 300 300 299 300 300 300 301 301 301 300 301 302 302 303 302 301 300 300 301 301 302 302 302 301 301 302 302 302 302 303 303 304 303 303 303 302 302 303 302 302 303 302 302 302 301 300 301 301 302 302 302 302 302 302 302 302 300 299 298 298 298 298 298
303 303 303 304 303 303 303 302 302 302 301 301 301 300 300 301 300 300 300 300 300 300 300 301 301 301 301 302 302 302 302 302 302 303 302 301 301 301 300 300 299 299 299 300 300 300 301 301 300 300 301 301 301 301 301 300 300 301 300 301 301 302 301 300 301 301 301 301 301 302 301 301 302 302 303 302 301 302 301 302 303 303 302 302 303 303 303 303 303 304 303 303 303 302 301 301 301 299 298 298 298 299 298
302 302 303 303 303 303 303 302 302 303 301 300 301 301 301 300 300 300 300 300 299 299 300 300 301 301 301 301 302 301 301 301 302 302 302 302 302 302 301 301 300 300 300 300 300 300 301 301 300 300 301 301 301 300 300 300 300 301 301 301 301 301 300 300 300 301 301 301 300 301 300 299 300 301 302 302 302 301 301 302 302 303 303 303 304 305 305 304 304 303 302 302 301 300 300 300 300 300 299 298 299 300 299
302 302 302 302 303 303 303 302 302 302 301 301 300 301 300 300 300 300 300 300 300 299 299 300 300 300 301 301 302 302 302 302 302 302 302 302 303 303 302 301 301 301 301 301 301 300 301 301 301 301 301 301 301 300 300 301 301 301 301 301 301 300 300 300 300 301 302 301 300 299 299 300 301 302 303 303 303 302 302 302 303 304 304 303 303 303 303 302 303 303 302 301 300 299 299 299 299 300 299 299 299 300 299
300 301 302 302 302 302 302 301 301 301 301 300 300 300 300 300 300 300 300 300 300 300 299 299 299 299 300 300 301 302 302 303 304 302 302 302 302 302 302 301 301 300 301 301 300 300 300 300 301 301 300 300 300 300 300 300 300 300 301 301 301 300 300 300 300 301 302 301 299 298 299 300 302 303 304 304 304 303 303 302 303 304 303 302 302 302 302 302 302 302 301 300 300 299 300 299 299 298 298 298 298 300 299
299 300 301 302 302 302 301 301 301 301 301 300 301 301 300 300 300 300 300 300 300 300 300 299 299 299 299 300 300 301 301 304 306 304 302 302 303 303 302 301 301 301 301 301 300 301 301 301 300 300 300 300 300 299 299 300 300 300 300 300 300 300 300 300 300 301 302 300 298 298 299 300 302 304 305 304 304 303 303 302 303 304 303 303 302 302 302 302 301 301 300 300 299 299 300 300 299 296 295 295 296 297 298
299 299 299 300 301 301 301 301 301 300 300 300 300 300 301 301 300 300 300 300 300 300 300 300 299 299 299 299 300 300 301 303 305 304 302 303 303 303 302 301 301 301 300 300 300 300 301 301 300 300 300 300 299 299 299 300 300 300 300 300 300 300 300 300 300 300 301 300 298 298 298 299 300 302 302 302 302 302 302 302 302 303 303 303 302 301 301 301 301 300 300 300 299 299 299 299 297 296 294 294 294 295 297
299 299 299 299 300 300 301 302 302 300 300 300 300 300 300 300 300 300 300 300 300 301 300 300 300 300 300 300 300 299 300 301 302 302 302 303 303 301 301 301 301 300 300 300 300 300 299 299 299 299 299 299 299 300 301 301 300 300 300 300 299 299 300 300 299 299 300 300 299 298 299 299 298 298 298 299 299 299 300 301 301 302 303 303 302 301 301 301 301 301 300 300 300 300 299 298 297 296 295 294 294 294 295
299 299 299 299 300 300 300 301 301 300 299 299 300 300 300 301 301 301 301 301 301 301 300 300 300 300 300 299 299 299 299 299 300 301 302 303 303 302 301 301 300 300 299 299 299 299 298 298 298 298 298 298 298 299 300 300 299 299 300 299 299 298 299 300 299 298 299 299 300 299 299 298 298 297 297 298 298 298 299 300 301 302 302 302 302 302 301 301 300 301 300 300 300 300 299 298 297 296 296 295 294 293 293
298 298 299 299 299 299 299 299 299 299 299 300 300 300 300 300 300 300 300 301 301 301 301 300 300 300 300 299 299 299 300 299 299 300 302 302 301 302 301 300 300 299 299 298 298 297 297 297 298 299 299 299 299 299 299 300 300 299 299 299 299 298 299 300 299 298 298 299 299 299 298 298 298 297 298 298 298 298 299 299 300 301 302 301 301 301 301 300 300 299 299 299 300 301 299 298 297 296 296 295 294 293 292
298 298 298 298 298 298 298 299 299 300 300 301 301 301 300 300 300 300 300 300 301 301 300 300 300 300 300 300 299 299 299 299 299 300 301 301 300 302 300 300 299 299 298 298 298 297 297 297 298 299 298 299 299 300 300 300 300 299 299 299 299 298 299 299 299 299 299 299 298 298 298 297 297 297 298 298 298 298 298 298 299 300 300 300 300 300 299 299 299 299 300 300 301 300 299 298 298 298 296 295 294 292 292
298 298 298 298 298 298 298 299 299 300 301 301 301 301 300 300 300 300 300 300 300 301 300 300 300 300 301 301 300 300 300 299 299 299 300 300 300 301 300 300 299 298 298 298 297 297 297 297 297 297 297 298 299 300 301 301 300 300 299 299 299 299 299 299 299 299 299 299 299 299 298 297 297 298 298 298 298 298 298 298 297 298 299 299 299 298 297 298 298 298 299 300 301 300 298 297 297 298 296 295 294 293 292
298 298 298 298 299 299 299 299 300 300 301 301 301 300 300 300 300 299 299 299 300 300 300 300 300 300 301 302 301 300 299 299 299 298 299 300 300 300 299 299 298 298 299 299 298 297 297 296 296 296 298 299 299 299 301 301 300 299 299 299 299 298 298 298 298 299 299 299 300 300 299 298 298 298 298 298 298 298 298 298 298 299 300 299 298 298 297 297 297 297 297 297 298 297 297 296 296 297 296 295 294 294 293
298 298 298 299 299 299 299 299 300 301 301 301 300 300 300 300 299 300 299 299 299 299 300 300 299 300 300 301 301 300 299 300 300 299 299 300 300 300 299 299 300 299 300 300 299 298 298 297 297 297 299 299 299 298 299 299 299 299 298 298 298 298 298 297 297 297 298 299 299 300 299 299 299 300 299 299 299 299 298 298 299 299 300 300 299 298 297 297 296 296 295 295 294 295 294 294 295 295 296 295 295 295 294
298 298 298 299 299 299 300 300 300 301 301 300 300 300 300 300 299 300 300 300 300 299 299 299 299 299 299 299 300 300 299 300 300 299 299 299 300 301 299 299 299 299 299 299 299 299 299 298 297 298 298 298 297 297 297 298 298 297 297 297 297 297 298 298 297 297 298 298 299 299 300 300 299 299 299 299 298 298 299 299 299 300 301 300 298 297 296 296 295 295 294 294 293 293 293 293 293 293 294 295 296 295 294
297 298 298 299 300 300 300 300 300 300 300 300 300 299 300 300 300 299 299 299 299 299 299 300 300 299 299 299 299 299 299 299 300 299 299 299 300 301 299 298 298 298 298 298 298 298 298 297 297 297 296 296 295 296 296 297 297 297 297 297 297 297 298 298 298 298 298 298 298 298 298 298 299 298 298 298 298 298 299 299 300 301 301 299 298 297 296 295 295 294 294 294 293 293 293 292 292 292 293 294 295 294 293
297 297 298 299 300 300 300 300 299 299 300 300 300 299 300 300 300 300 299 299 299 299 299 300 300 300 300 300 300 299 299 299 299 299 299 300 300 299 299 299 298 298 297 297 297 297 296 296 296 296 296 295 295 295 296 296 296 296 296 297 297 297 298 298 298 299 298 298 297 297 297 297 298 297 297 297 297 297 297 298 299 301 300 298 297 296 295 295 294 294 294 293 293 293 292 292 292 292 292 293 293 293 292
297 298 299 299 300 300 299 299 299 299 299 300 300 300 300 300 300 300 299 299 300 300 299 299 300 300 300 301 301 300 300 300 300 299 300 300 300 299 300 300 299 298 297 297 297 297 296 296 296 296 295 294 294 294 295 296 296 296 296 296 297 298 298 298 298 298 298 298 297 297 296 296 296 296 296 296 296 296 296 296 297 298 298 297 296 295 295 294 294 294 294 293 293 292 292 292 292 291 291 292 292 291 291
298 298 299 299 299 299 299 299 299 299 299 299 300 300 300 300 300 300 300 300 300 300 300 300 300 300 301 301 301 301 301 301 300 300 300 300 300 300 300 300 299 298 298 297 297 297 297 296 296 296 295 295 294 294 295 295 295 295 296 297 297 298 298 298 298 298 298 298 298 297 296 296 296 295 296 296 296 296 296 296 296 296 296 295 295 294 294 293 293 293 293 293 293 292 292 292 292 291 291 291 291 291 291
298 298 298 298 298 298 298 299 299 299 299 299 300 300 300 300 300 300 300 300 300 300 300 299 300 300 301 301 301 302 301 301 301 301 300 300 300 299 300 299 299 299 298 298 298 297 297 296 296 296 296 296 295 295 295 295 295 295 296 297 297 297 297 297 297 297 297 297 296 296 295 295 295 295 296 296 296 297 297 297 296 296 295 295 294 294 293 293 293 293 293 293 293 292 291 291 291 291 291 290 290 291 291
298 298 298 298 298 298 299 299 299 299 299 299 299 299 300 300 300 299 299 299 300 299 299 299 299 299 300 300 301 301 301 301 301 301 301 300 300 300 300 299 299 299 299 298 298 297 297 297 296 296 296 296 295 295 295 295 295 295 296 296 296 296 296 296 296 295 296 295 295 294 295 295 296 296 296 296 296 297 296 296 296 295 295 294 294 294 294 293 293 293 293 293 292 291 290 290 290 290 290 290 290 290 290
298 297 298 298 298 298 299 299 299 299 299 299 299 299 300 300 299 299 299 299 299 299 299 299 299 299 299 300 300 300 301 301 301 300 300 300 300 300 300 300 299 299 300 299 298 298 298 297 296 296 296 296 296 296 295 295 295 295 296 296 296 296 296 295 295 295 294 294 294 295 295 296 296 297 297 296 296 296 296 296 296 295 295 295 295 294 294 294 293 293 293 292 291 290 290 290 289 289 290 290 289 289 289
298 298 298 298 299 298 298 298 298 298 298 299 299 299 300 300 299 298 299 299 298 298 298 298 297 298 299 300 300 300 301 301 300 300 300 300 300 300 300 299 299 300 300 299 299 298 297 296 296 296 296 296 296 296 295 295 295 296 295 295 295 296 296 295 295 294 294 294 295 296 296 296 296 296 296 296 295 296 296 296 296 296 295 295 295 295 294 294 293 293 292 292 291 290 290 289 289 289 289 289 289 289 288
299 299 299 298 298 298 298 298 298 298 298 298 299 299 300 299 299 298 298 298 298 298 298 298 298 298 299 300 300 300 300 300 300 300 299 300 300 300 300 299 299 299 300 299 298 297 296 296 296 296 296 296 297 296 295 296 296 295 295 295 295 296 296 296 296 295 295 296 296 296 296 296 296 296 296 296 295 295 296 296 296 296 296 295 295 295 294 293 293 292 292 291 291 290 289 289 289 289 289 288 288 289 289
299 298 298 298 298 298 298 298 298 298 298 298 299 299 299 299 298 298 297 297 297 297 297 297 298 298 299 299 299 300 300 299 299 299 299 299 300 300 300 300 299 299 298 297 296 296 296 296 296 296 295 295 296 296 296 296 296 295 294 294 295 296 296 296 296 296 296 296 296 296 296 296 296 296 296 295 295 295 296 296 296 296 295 295 295 294 294 293 293 292 291 291 291 290 289 289 289 288 288 288 288 288 288
298 298 298 298 298 298 298 298 298 298 299 299 299 299 298 298 297 297 297 297 297 296 297 297 297 298 298 299 299 299 299 299 299 299 299 299 300 300 300 299 298 297 296 295 294 294 295 296 297 297 296 296 297 298 298 297 296 296 295 295 295 296 296 296 296 296 296 296 296 296 296 296 296 296 296 296 296 296 296 295 295 295 295 294 294 294 293 293 292 292 291 291 291 290 289 289 288 288 288 287 287 288 288
298 298 299 298 298 298 298 299 299 299 299 298 298 298 297 297 297 297 297 296 296 296 296 297 297 297 298 299 299 299 298 299 299 298 298 299 299 299 298 297 297 296 296 295 295 295 297 297 298 297 297 297 297 297 298 297 297 296 296 296 296 296 296 296 296 296 295 295 296 296 296 296 296 296 296 295 295 295 295 295 294 294 294 293 293 293 292 292 292 291 291 291 291 291 290 289 289 289 289 288 288 288 289
299 299 299 299 298 298 299 299 300 300 299 298 297 297 297 296 296 296 296 296 296 296 296 296 297 297 298 298 299 299 299 299 298 298 298 298 298 297 297 296 296 296 296 296 296 296 296 297 297 297 297 297 297 297 297 297 296 297 296 296 295 295 295 296 296 295 295 295 295 296 296 296 296 295 295 295 295 294 294 294 294 293 293 293 293 293 292 292 292 291 291 291 291 290 289 289 290 290 289 289 289 289 290
299 299 299 298 298 299 299 300 300 300 299 298 297 297 296 296 296 296 296 296 296 296 296 296 297 297 298 298 299 299 299 298 298 297 297 297 297 296 296 296 296 296 296 296 297 297 297 297 297 297 297 297 297 297 297 296 296 296 296 296 295 295 295 296 296 295 295 295 295 295 295 296 295 295 294 294 294 294 294 293 293 293 293 292 292 292 292 292 292 291 291 291 291 290 290 290 290 290 290 290 290 290 291
299 298 298 298 298 299 299 300 300 299 298 297 296 296 296 296 296 296 296 296 296 296 296 297 297 297 298 298 298 298 298 298 297 296 296 297 296 295 295 295 295 295 295 296 297 297 298 298 298 298 297 297 297 297 296 296 295 296 296 296 295 295 295 295 295 295 294 294 294 295 295 295 295 295 294 294 294 293 293 293 293 292 292 292 292 292 292 291 291 291 291 291 291 291 290 290 290 290 290 290 290 290 290
298 298 298 298 299 299 299 300 299 298 297 296 295 296 296 296 296 296 296 296 296 296 296 297 297 298 298 298 298 298 298 297 296 295 296 296 295 295 295 294 294 294 295 295 296 296 296 297 297 296 297 296 296 296 295 295 295 295 295 295 295 295 295 295 295 294 294 294 294 295 294 294 294 294 294 294 293 293 293 292 292 292 292 292 292 292 292 291 291 291 291 291 291 291 291 291 290 290 290 290 290 290 290
297 297 298 298 298 299 299 299 298 297 296 296 295 296 296 296 296 296 296 296 296 296 296 296 297 297 297 297 297 297 296 296 295 294 295 295 295 294 294 294 294 294 294 295 295 295 295 295 296 295 295 295 295 295 295 295 295 295 295 295 295 294 294 294 294 294 294 294 294 294 293 293 293 293 293 293 293 293 293 292 292 292 292 292 292 292 291 291 291 291 291 291 291 291 291 291 290 290 289 289 289 289 290
297 297 298 298 299 299 299 299 298 297 296 295 295 295 296 296 296 296 296 297 297 297 297 297 296 296 296 296 296 295 295 295 295 294 295 295 294 294 294 294 293 293 293 294 294 294 294 294 294 295 295 295 295 295 294 294 294 294 294 294 293 293 293 293 293 293 293 293 293 293 293 293 293 293 293 293 293 293 292 292 292 292 291 291 291 291 291 291 290 291 291 290 290 290 290 290 289 288 288 288 288 289 289
297 297 298 298 299 299 299 299 298 296 295 295 295 295 296 296 297 297 297 297 297 297 297 296 296 295 295 295 295 294 293 294 294 294 294 294 294 294 293 293 293 293 293 293 293 293 293 293 294 294 294 294 294 294 294 293 293 292 293 293 293 293 292 292 293 293 293 293 293 293 293 293 293 293 292 292 291 291 291 291 291 290 290 289 289 289 289 288 288 288 288 288 287 287 287 287 286 286 286 286 286 288 287
297 297 298 298 299 299 299 298 297 295 295 295 295 296 296 297 297 298 298 298 298 298 297 296 295 294 294 294 294 293 293 293 293 294 294 294 294 294 293 293 292 292 292 292 292 292 292 292 293 293 293 294 294 293 293 293 293 292 292 292 292 292 292 292 292 293 293 293 293 293 293 293 292 292 291 291 290 290 289 289 289 288 288 288 288 288 287 287 287 287 287 286 286 286 286 286 285 285 285 285 285 286 285
297 297 298 298 299 299 299 298 296 295 295 296 296 297 297 297 298 299 299 299 299 299 297 295 294 293 293 293 293 292 292 292 293 294 293 293 293 293 293 292 291 291 291 291 291 291 291 291 291 291 292 292 292 292 292 292 292 292 292 291 291 292 292 292 292 293 293 293 293 293 293 292 292 291 290 290 289 288 288 288 288 288 288 288 288 288 288 288 288 287 287 286 285 285 286 286 286 285 285 285 285 285 285
297 298 298 299 299 300 299 297 296 295 296 296 297 297 297 298 298 299 299 300 299 299 297 295 293 293 293 292 292 292 292 292 293 293 293 293 293 292 291 291 290 290 290 290 290 290 290 290 290 290 290 290 289 289 289 290 290 291 291 291 291 291 291 292 292 293 293 293 292 292 292 291 291 290 290 289 289 288 288 288 288 289 289 289 289 288 288 288 288 287 286 286 285 285 286 286 286 285 285 285 285 284 284
298 299 299 300 300 299 298 296 295 296 296 297 297 298 298 298 299 299 299 300 300 299 297 295 293 292 292 292 291 292 292 292 292 292 292 292 291 291 290 290 290 290 290 291 291 290 290 290 289 289 289 289 288 288 289 289 290 290 290 291 291 291 291 291 291 292 292 292 291 291 291 291 290 290 289 289 289 289 289 289 289 289 289 289 289 289 288 287 287 286 286 286 285 285 285 285 285 285 285 284 284 284 284
299 299 300 300 300 299 298 297 296 296 297 297 297 298 298 299 299 299 300 300 300 299 297 294 293 292 292 291 291 291 291 291 291 291 291 291 291 291 291 291 291 292 292 292 292 291 291 290 289 289 289 289 289 289 289 290 290 290 290 290 291 291 291 291 291 291 291 291 291 291 291 290 290 289 289 289 289 289 289 289 289 289 289 289 289 288 287 287 286 286 286 286 286 285 285 285 285 285 285 285 284 284 284
299 300 300 300 300 298 298 297 297 297 297 298 298 298 299 299 299 300 300 300 299 299 297 294 292 292 291 291 291 291 291 290 290 290 290 290 291 291 291 291 292 292 292 292 292 292 291 291 290 289 289 289 289 289 289 290 290 290 291 291 291 291 291 291 291 291 291 291 291 291 290 290 289 289 289 289 289 289 289 289 289 289 289 289 288 288 287 287 287 286 286 286 286 285 285 285 285 285 285 285 285 284 284
300 300 300 300 299 298 298 298 298 298 298 298 299 299 299 299 300 300 300 300 299 299 296 294 292 292 291 291 291 290 290 290 290 290 290 290 291 291 291 291 292 292 292 292 292 292 292 291 290 290 290 290 290 290 290 290 291 291 291 291 291 291 291 291 291 291 291 291 291 290 290 289 289 289 289 289 289 290 289 289 289 289 289 288 288 287 287 287 287 286 286 286 285 285 285 285 285 285 285 285 285 285 285
300 300 300 299 299 298 298 298 298 299 299 299 299 300 300 300 300 300 300 300 299 298 295 293 292 291 291 291 290 290 289 289 290 290 290 290 291 291 291 291 292 292 292 292 291 291 291 291 291 290 290 291 291 291 291 291 292 292 292 292 292 292 292 291 291 291 291 290 290 289 289 289 289 289 289 289 290 290 290 289 289 289 288 288 288 287 287 287 286 286 286 286 286 285 285 285 285 285 285 285 285 285 285
300 300 299 299 299 298 299 299 299 299 299 299 300 300 300 300 300 300 300 299 299 297 294 292 291 291 291 290 290 290 290 290 290 290 290 290 290 291 291 291 291 292 291 291 291 291 291 291 291 291 291 291 292 292 292 292 292 293 293 293 292 292 292 291 291 290 290 290 289 289 289 289 289 289 289 289 289 289 289 289 288 288 288 287 287 287 287 286 286 286 286 286 286 286 286 286 286 285 285 285 285 285 285
299 299 299 299 299 298 299 299 299 299 299 300 300 300 300 300 300 300 299 299 297 295 293 292 291 291 291 291 290 290 290 290 290 290 290 290 291 291 291 291 291 291 291 291 290 290 290 291 291 291 292 292 292 292 292 293 293 293 293 293 292 292 292 291 291 290 289 289 289 289 289 289 289 289 289 289 289 289 288 288 287 287 287 287 287 287 287 287 286 286 286 286 286 286 286 285 285 285 285 285 285 285 285
299 299 298 298 298 299 299 299 299 299 300 300 300 300 300 300 300 299 298 297 295 293 292 292 291 291 290 290 290 290 290 290 290 290 290 291 291 291 291 290 290 290 290 290 290 290 290 291 291 291 291 292 292 292 292 292 292 292 292 292 292 291 291 290 290 289 289 289 289 289 289 289 289 289 289 289 288 288 287 287 287 287 287 287 287 287 287 287 286 286 286 286 286 285 285 285 285 285 285 285 285 285 286
299 299 298 298 298 299 299 299 299 300 300 300 300 300 300 300 299 298 297 296 294 292 292 291 290 289 289 289 289 289 290 290 290 290 291 291 290 290 290 290 289 289 290 290 290 290 290 290 291 291 291 292 292 292 292 292 292 291 291 291 291 291 290 290 290 289 289 289 289 288 289 288 288 288 288 288 287 287 287 287 287 287 287 286 286 286 286 286 286 286 286 285 285 285 285 285 285 285 284 284 285 285 285
299 298 298 298 299 299 299 299 299 300 300 300 300 301 300 299 298 297 295 294 293 292 291 290 289 288 289 289 289 290 290 291 291 291 291 291 291 290 290 290 290 290 291 291 291 291 291 291 291 291 291 292 292 291 291 291 291 290 290 290 290 290 289 289 289 289 288 288 288 288 288 288 287 287 287 287 287 287 287 286 287 287 286 286 286 286 286 286 286 285 285 285 285 285 285 284 284 284 284 284 284 284 284
298 298 298 298 298 299 299 299 300 300 300 300 300 300 299 298 296 295 294 293 292 291 291 290 289 288 289 290 290 291 291 292 292 292 291 291 291 291 291 292 292 292 292 292 292 293 293 293 293 293 293 293 292 292 291 291 290 290 290 289 289 288 288 288 287 288 288 288 287 287 287 287 287 286 286 286 286 286 286 286 286 286 286 286 286 286 287 287 286 286 286 285 285 285 284 284 284 285 285 284 283 283 284
298 298 298 298 298 299 299 299 300 300 300 300 300 299 297 296 295 295 294 293 292 292 291 290 289 289 289 290 291 291 291 292 292 292 291 291 291 291 292 292 292 292 292 292 292 293 293 294 294 294 293 293 293 292 292 291 291 290 289 288 288 287 287 287 287 287 287 287 287 287 286 286 286 286 286 285 285 285 286 286 286 286 286 286 286 286 288 289 289 288 287 287 285 285 285 284 284 284 283 283 283 283 284
298 298 298 299 299 299 299 299 299 300 300 299 299 297 296 295 295 295 294 293 292 292 291 290 289 289 289 290 291 291 291 291 291 291 291 291 291 292 292 293 293 293 293 293 293 293 294 294 294 293 293 293 292 292 292 291 290 288 287 287 287 287 287 287 287 286 286 286 286 286 285 285 285 285 285 285 285 285 285 285 285 285 286 286 286 287 288 289 289 289 289 287 285 284 283 283 283 282 282 282 283 283 283
298 298 298 299 299 299 299 299 299 299 299 299 298 296 295 295 294 295 294 294 293 293 291 290 289 290 290 290 291 291 291 291 290 290 290 290 290 291 292 292 293 293 293 293 293 294 294 293 293 293 293 292 292 292 291 290 288 287 287 286 286 286 286 286 286 286 286 286 286 285 284 284 284 284 284 284 284 284 284 284 284 284 284 285 286 287 288 289 289 289 289 288 287 283 282 282 281 281 282 282 282 283 283
298 298 298 299 299 299 299 299 299 299 299 299 297 295 295 295 294 294 294 294 293 292 292 291 290 290 290 290 290 290 290 290 290 289 289 289 289 290 291 291 292 292 292 293 293 293 293 293 293 293 292 292 291 290 288 287 287 287 286 286 286 286 286 286 285 285 285 285 285 284 284 283 283 283 283 284 284 283 283 283 283 283 283 284 285 287 288 289 289 289 289 289 288 284 282 281 281 281 281 282 282 282 283
298 298 298 298 299 299 299 299 299 299 299 298 296 295 295 294 294 294 294 293 292 291 291 291 291 291 291 291 291 290 290 289 289 288 287 287 288 289 290 290 290 291 291 291 291 291 292 292 292 291 290 290 289 288 287 287 287 286 286 286 286 286 286 285 285 285 285 285 284 284 284 283 283 283 283 283 283 282 282 282 282 282 282 283 285 288 288 288 289 289 289 289 288 287 283 281 280 280 281 281 282 282 282
299 299 299 299 299 299 299 299 299 299 298 297 295 295 295 294 294 294 293 293 292 291 291 291 291 291 291 291 290 290 289 289 288 287 287 287 287 288 288 288 288 288 289 289 289 290 290 290 289 289 288 288 287 287 287 287 287 286 286 286 286 286 285 285 285 285 285 284 284 284 283 283 283 283 283 282 281 281 280 280 281 281 281 282 284 287 288 288 289 289 289 288 288 288 284 282 281 280 281 281 281 282 282
299 299 299 299 299 299 299 299 299 298 297 296 295 295 295 295 294 294 293 293 293 292 291 291 291 291 291 291 290 290 289 289 288 288 287 287 287 287 286 287 287 287 287 287 287 288 288 288 288 287 287 287 287 287 287 287 286 286 286 286 286 286 285 285 285 285 284 284 283 283 283 283 283 283 282 281 281 280 280 280 280 281 280 282 284 287 288 288 289 289 288 288 288 287 285 283 282 282 281 281 281 282 282
299 299 298 298 299 298 298 299 299 298 297 296 296 296 296 296 295 294 293 293 293 293 293 292 292 292 291 291 291 291 290 290 289 289 288 287 286 286 286 286 287 287 286 286 286 286 286 286 287 287 287 287 287 287 286 286 286 286 286 286 286 286 285 285 284 284 284 283 283 283 283 282 282 281 281 281 280 280 280 280 280 281 280 281 283 287 288 288 288 288 288 288 287 287 285 283 282 282 282 282 282 281 281
298 298 298 298 298 299 299 298 298 297 296 296 296 296 296 296 295 294 294 293 293 293 293 293 293 292 291 291 290 290 289 288 288 287 287 287 286 286 287 287 287 287 287 286 285 285 285 286 286 286 286 286 286 286 286 286 286 286 286 286 286 285 285 284 284 284 283 283 282 282 282 281 281 281 280 280 280 280 280 280 280 281 281 282 284 287 288 288 288 288 287 287 287 286 285 283 282 282 282 282 282 282 282
298 298 298 299 299 299 299 298 296 295 295 295 295 296 296 295 295 294 294 293 292 292 293 293 293 293 292 291 290 289 288 287 286 286 286 286 286 287 287 287 287 287 287 286 286 286 287 287 286 286 286 286 286 286 286 286 286 286 286 285 285 284 284 284 283 283 283 282 282 281 281 281 280 280 280 280 280 280 280 280 280 280 281 283 286 287 287 287 287 287 287 287 286 286 284 283 282 282 283 283 283 283 283
Wind_Speed
4 5 6 7 7 7 6 6 5 5 4 4 4 3 3 2 1 0 1 1 2 2 3 3 3 3 2 2 1 1 1 1 1 1 1 1 1 1 1 1 1 1 1 1 2 2 2 2 2 2 3 3 3 4 4 4 5 5 5 4 4 2 2 2 2 2 2 2 1 1 1 1 1 2 2 2 1 1 1 1 2 2 2 2 1 1 1 1 1 1 1 1 1 2 2 1 0 1 2 2 1 1 1
4 5 6 6 6 6 6 6 5 4 4 3 3 2 3 2 1 1 1 1 2 2 3 4 4 4 3 2 2 1 1 1 1 1 1 1 1 1 1 1 1 2 2 2 2 2 2 2 2 2 2 3 4 4 5 5 6 6 5 5 4 3 3 3 3 2 2 2 1 1 1 0 0 1 1 1 1 1 1 1 2 2 2 2 2 2 2 2 1 1 1 1 1 1 1 1 1 0 1 2 1 1 2
4 5 6 6 6 5 5 5 5 4 4 3 1 1 2 2 2 2 2 2 2 2 3 4 4 4 3 3 3 3 2 2 2 2 2 2 2 2 2 2 2 2 2 2 2 2 2 2 2 2 3 3 4 4 5 6 7 7 6 5 4 4 4 3 3 2 2 2 1 1 1 1 0 1 1 1 1 1 1 1 2 2 2 2 2 2 1 1 1 0 0 0 0 0 0 1 1 1 1 1 2 1 2
4 4 6 6 6 5 5 4 4 4 4 3 2 2 3 3 3 3 2 2 1 1 3 3 3 3 4 4 4 4 4 3 3 2 2 2 3 3 3 3 3 3 3 3 3 3 3 3 3 3 3 3 4 4 4 6 7 8 7 6 5 5 5 4 4 3 3 2 2 1 1 1 1 1 1 1 1 1 1 2 2 2 1 1 1 1 0 0 0 0 1 1 1 1 1 1 0 1 1 1 1 1 2
4 3 4 4 5 5 5 4 4 4 4 4 4 3 3 3 3 3 2 2 2 1 2 3 3 3 4 4 5 5 5 4 4 3 3 3 3 3 3 3 3 3 3 3 3 3 4 4 4 4 4 4 4 4 4 5 6 8 7 7 6 6 5 5 4 4 4 3 2 2 2 2 1 1 1 1 1 1 1 2 2 2 1 1 1 1 1 1 1 1 1 1 1 1 1 1 1 0 0 1 1 1 1
3 2 2 3 3 4 4 4 4 3 3 3 3 3 3 2 2 2 2 2 2 2 3 3 3 3 3 4 5 5 6 6 5 4 4 4 4 4 4 4 4 4 4 4 4 3 4 4 4 4 4 4 4 4 4 4 5 7 8 7 6 6 6 5 5 5 4 4 3 2 2 2 1 1 1 1 1 1 1 1 1 2 2 1 1 1 1 1 1 1 1 1 1 1 1 1 1 2 1 1 1 2 1
2 2 2 2 2 3 3 3 3 4 3 3 2 3 2 2 2 3 3 3 3 3 4 4 4 3 4 4 5 5 6 7 8 7 6 6 6 6 6 6 5 5 5 5 5 4 4 4 4 4 3 4 4 4 4 4 5 5 6 6 6 7 7 6 6 5 5 4 3 2 2 2 1 1 1 1 1 1 1 1 1 1 1 1 1 0 1 1 1 1 1 1 1 1 1 1 1 2 2 2 2 2 1
2 2 2 2 2 2 3 3 4 3 4 4 3 3 3 3 4 4 4 4 4 5 5 5 5 6 5 5 5 5 5 7 8 7 6 6 6 5 5 5 4 4 4 4 4 4 3 3 3 3 3 3 4 4 4 4 4 4 4 5 6 7 7 7 6 5 5 5 4 3 3 2 1 1 1 1 1 1 1 1 1 1 0 1 1 1 1 1 1 1 0 0 0 1 1 1 1 1 2 2 2 2 2
2 2 2 2 1 2 2 2 2 2 3 3 3 3 4 5 5 5 5 6 6 6 6 6 6 6 6 6 5 5 5 7 8 7 6 5 5 4 4 3 3 3 2 2 2 2 2 1 2 3 3 3 3 3 4 4 3 3 4 4 5 6 7 7 6 5 5 5 5 4 3 3 2 1 1 1 1 1 1 1 1 1 1 1 1 1 1 2 2 2 1 1 1 1 1 1 0 1 1 1 2 2 2
3 3 3 2 2 1 1 1 2 2 1 1 2 3 4 5 6 6 7 7 6 6 6 6 6 6 6 6 5 5 6 7 7 7 6 5 5 5 4 4 3 3 3 3 3 3 3 2 3 4 4 4 3 3 4 4 3 3 4 4 5 6 7 7 6 5 5 5 5 5 4 3 2 2 2 2 1 1 0 0 1 1 1 1 1 1 1 1 1 1 1 1 1 1 1 0 1 1 1 1 1 1 2
3 2 2 2 1 1 1 2 2 2 2 1 1 3 3 4 4 5 5 6 6 6 6 6 6 6 6 6 6 6 6 6 7 7 6 5 5 5 5 5 5 5 4 4 4 4 4 3 3 4 5 5 4 4 4 4 4 4 4 4 4 5 6 7 6 5 5 5 5 4 3 3 3 2 2 2 2 1 1 1 1 0 0 0 0 0 0 0 0 0 1 1 1 2 1 1 1 1 1 1 0 1 2
2 2 2 2 2 1 1 1 2 2 2 1 1 2 2 2 2 2 3 4 4 5 5 6 6 6 6 6 6 6 6 6 6 6 5 5 5 5 6 6 6 6 5 5 5 4 4 3 3 4 4 4 4 4 4 4 4 5 5 4 4 4 5 6 6 5 4 4 4 4 4 3 3 3 2 2 2 2 2 1 1 1 1 1 1 1 1 1 1 1 1 1 1 1 1 1 1 1 1 1 0 1 2
2 3 2 3 3 2 2 2 2 2 2 1 1 2 1 0 1 1 1 2 3 3 4 5 5 5 6 6 5 5 6 6 6 6 5 5 5 5 6 6 7 7 6 6 5 4 4 4 3 3 4 4 4 5 5 5 5 5 5 4 4 3 4 5 6 5 4 4 4 4 3 3 3 2 2 2 2 2 2 1 1 1 1 1 1 1 1 1 1 0 0 0 0 0 0 1 1 1 1 1 0 1 2
3 3 3 3 3 4 3 2 2 3 3 3 2 1 0 0 1 1 1 1 2 3 3 4 4 5 5 5 5 5 6 5 5 5 6 6 5 5 6 6 7 8 7 6 5 5 5 5 4 4 4 5 5 5 6 6 6 6 5 4 4 3 3 3 4 4 3 3 3 3 3 3 3 2 2 2 2 2 2 1 1 1 2 2 2 1 1 0 1 1 2 2 2 2 1 1 1 1 0 1 1 1 1
3 3 3 3 3 4 3 3 3 3 3 3 2 2 1 1 2 1 1 1 1 1 2 2 3 3 4 4 5 5 5 6 6 5 6 6 6 6 6 6 6 7 7 6 6 6 6 5 5 4 4 4 4 5 5 6 6 5 5 4 4 3 3 3 3 3 3 3 3 3 3 3 3 3 2 2 2 2 2 2 2 3 3 3 2 2 1 1 1 2 2 2 2 2 2 1 1 1 1 1 1 1 0
3 4 4 4 4 4 4 3 3 3 2 2 2 2 2 2 2 2 1 0 0 0 0 1 1 2 3 3 4 4 5 6 7 7 7 7 7 7 6 6 6 6 7 7 7 6 6 6 5 4 3 3 3 3 4 5 6 6 5 5 4 3 3 2 2 2 3 3 3 3 3 3 3 3 2 2 2 2 3 3 3 3 3 3 3 3 2 2 2 2 2 1 1 1 1 1 1 2 1 1 1 0 1
3 3 4 4 4 4 4 3 2 1 2 2 2 2 2 1 1 0 0 1 1 1 1 1 2 2 3 3 3 4 5 6 6 7 7 8 8 8 7 7 7 7 9 8 8 7 6 5 4 4 3 3 3 3 4 5 6 6 5 5 4 4 3 3 2 2 2 3 3 3 3 3 3 3 3 3 3 3 3 3 3 3 3 3 3 4 4 4 4 3 2 2 2 1 1 1 1 2 2 2 1 1 1
2 2 3 3 3 3 3 2 1 0 1 1 1 0 1 1 1 1 1 1 1 1 1 2 2 3 3 4 4 4 4 5 6 7 8 8 8 8 7 7 8 9 10 10 9 8 7 6 5 4 4 3 3 3 4 5 5 6 5 5 4 4 3 3 3 2 2 2 3 3 3 3 3 4 4 4 3 3 2 2 2 2 3 3 3 4 4 4 3 3 3 3 3 2 2 2 2 3 3 3 3 2 2
0 0 1 1 1 2 3 2 1 1 1 1 2 2 2 2 2 2 1 1 1 2 1 2 2 3 4 4 5 5 5 6 6 7 8 8 9 9 8 9 9 9 10 10 10 10 9 8 6 5 5 4 4 5 5 5 5 5 5 5 4 4 3 3 3 3 2 2 2 2 3 3 4 4 4 3 3 2 2 2 2 3 3 3 3 3 2 2 2 3 3 3 3 3 3 3 3 3 3 3 3 3 3
1 1 2 2 3 3 3 3 2 1 2 2 3 3 3 3 2 2 2 2 2 2 2 2 3 4 5 6 6 6 7 7 7 7 8 9 9 9 10 10 10 10 11 11 10 10 9 9 8 7 6 6 5 6 6 6 6 5 5 4 4 4 4 4 3 3 2 2 2 2 3 3 3 3 3 3 3 3 3 3 3 3 3 2 2 2 2 2 2 2 3 3 3 3 3 3 3 3 3 3 3 4 4
2 3 3 3 3 3 3 3 2 2 2 3 3 3 3 3 2 2 2 2 3 3 3 4 4 5 6 7 7 7 7 8 8 9 9 9 9 9 9 10 10 11 11 11 10 10 9 8 8 7 7 6 6 6 6 6 6 5 5 4 4 4 4 3 3 2 2 2 2 2 3 3 3 3 3 4 4 4 3 3 3 2 2 3 3 3 3 3 3 3 3 3 3 3 3 3 4 4 4 4 4 4 4
2 2 3 3 3 3 3 3 2 3 3 3 3 2 2 2 2 2 3 3 3 4 4 5 5 6 7 7 8 8 8 9 9 10 10 10 10 10 9 9 10 10 11 10 9 9 9 9 8 7 7 6 6 6 5 5 5 5 5 4 4 4 3 3 3 2 2 2 2 2 3 3 3 3 4 4 4 3 3 2 2 2 3 4 5 5 5 6 6 5 5 4 4 4 4 4 5 5 4 4 4 4 5
2 2 3 3 3 3 3 3 3 3 3 3 2 2 2 2 2 3 3 3 4 4 5 5 6 7 7 8 8 9 10 10 11 11 11 11 11 10 9 9 8 8 9 8 8 8 8 8 8 6 6 6 6 6 5 5 5 5 5 4 4 3 3 3 3 3 3 3 3 3 4 4 4 4 4 4 3 3 3 3 3 3 4 5 6 6 7 7 7 7 6 5 5 4 4 5 5 5 5 5 5 5 5
2 2 3 3 4 4 4 4 4 3 3 3 2 2 2 2 2 3 3 4 4 5 6 6 7 7 7 8 9 10 11 11 12 12 12 11 11 10 9 8 7 7 7 7 7 7 7 7 6 5 6 6 6 6 5 5 4 4 4 4 3 3 3 3 3 4 4 3 3 3 4 5 5 4 4 4 4 3 4 4 5 5 6 6 7 7 7 7 7 7 6 5 4 4 5 5 5 5 4 5 5 5 5
3 3 4 4 4 5 4 4 4 4 3 3 2 2 2 2 3 3 4 5 5 6 6 7 7 7 7 8 9 10 11 11 12 12 12 11 10 9 9 8 7 6 6 5 5 6 6 5 5 5 5 5 6 6 5 5 4 4 4 4 3 3 3 3 3 3 4 3 3 4 5 5 5 4 5 5 4 5 5 5 6 6 7 7 7 7 7 8 7 7 6 5 4 4 4 4 4 4 5 5 5 5 5
3 4 5 5 5 5 4 4 4 3 3 3 3 2 2 3 3 4 5 5 6 6 6 6 6 7 7 8 9 10 10 11 11 11 10 9 9 7 8 7 6 5 3 3 3 4 4 4 4 3 4 4 5 5 5 5 4 4 4 4 3 3 3 3 3 3 3 4 5 6 6 5 4 4 4 5 5 6 6 6 6 7 7 7 8 8 8 8 7 6 5 5 4 4 4 4 4 4 4 5 5 6 6
5 5 5 5 5 5 4 4 3 3 3 3 2 2 3 3 4 4 5 5 5 5 5 5 6 6 6 7 8 9 10 10 10 9 8 7 7 6 6 6 5 4 3 2 3 4 4 4 4 4 4 4 4 4 4 4 5 5 4 4 4 4 4 4 4 4 5 5 5 5 5 4 3 3 4 4 5 5 6 6 7 7 7 8 8 8 8 7 6 6 5 4 4 4 4 4 5 5 5 5 6 7 6
6 5 5 5 5 4 3 3 3 3 3 2 2 2 3 3 3 3 4 4 4 5 5 5 6 6 6 7 8 9 9 9 8 7 6 6 7 7 7 7 6 6 6 5 5 4 5 5 5 4 4 5 5 5 5 5 5 5 4 4 4 4 4 5 5 5 5 5 5 5 4 3 3 3 3 4 4 5 6 6 7 7 7 8 8 8 7 7 6 6 5 5 4 4 5 5 5 5 5 5 6 7 6
6 5 4 4 4 3 3 2 2 3 2 2 2 2 2 3 3 3 3 3 3 4 5 5 6 6 6 7 8 9 9 8 7 5 6 7 8 9 7 7 7 8 8 8 7 6 7 7 6 4 5 6 6 5 6 6 5 5 4 4 4 5 5 6 6 5 4 5 5 5 4 4 4 4 4 4 5 5 6 7 7 7 8 8 8 8 8 7 7 6 5 5 5 5 6 6 6 6 6 5 5 5 5
5 5 4 4 3 3 3 3 3 2 1 1 1 2 2 3 3 3 3 3 3 3 4 5 6 6 6 7 8 9 9 8 5 5 6 7 8 7 6 6 7 8 8 8 7 7 7 7 6 5 5 6 6 5 5 5 5 4 4 4 4 4 5 5 6 6 5 5 5 5 5 4 4 5 5 5 5 6 7 7 8 8 9 9 8 8 8 8 7 7 5 5 5 6 6 6 6 7 7 6 6 5 5
5 4 4 4 3 3 3 4 3 2 1 0 1 1 2 2 2 3 3 3 3 3 3 4 5 6 6 7 7 8 8 6 3 5 6 7 8 6 5 6 6 6 6 6 7 7 7 6 6 5 6 6 6 5 5 5 5 4 4 4 5 5 5 6 6 6 5 4 4 4 4 4 4 4 5 5 6 7 7 8 9 9 9 9 8 8 8 8 8 7 6 5 6 6 6 7 7 8 7 7 7 6 6
5 5 4 4 3 4 4 4 3 3 1 0 1 1 2 2 2 3 3 4 4 4 4 4 4 5 5 6 6 6 6 4 2 5 6 6 6 5 4 4 5 5 6 6 7 7 7 6 6 5 5 5 5 5 5 6 6 6 6 6 6 5 5 5 4 3 3 2 1 2 2 3 4 4 5 6 7 7 8 9 9 10 10 10 9 9 8 8 8 7 6 6 6 6 6 7 8 8 7 7 7 7 7
4 4 3 3 3 4 4 4 3 2 1 1 1 2 2 3 3 3 4 4 5 5 5 5 5 5 5 5 5 6 5 3 3 5 6 6 6 5 4 4 4 5 6 6 6 6 6 6 6 5 5 4 4 4 5 6 7 8 8 7 7 6 4 4 3 3 2 1 1 1 2 3 4 5 6 7 7 8 9 10 11 10 10 10 9 9 9 9 9 8 6 6 6 5 6 6 7 8 8 8 8 8 7
3 2 2 2 3 4 4 4 3 2 1 0 1 2 2 3 3 4 5 5 5 5 6 6 5 5 5 5 5 5 4 2 3 5 6 5 5 5 5 5 4 4 5 5 6 6 6 6 6 6 6 5 5 6 7 7 8 8 8 7 6 5 4 4 3 3 3 2 2 2 3 4 5 6 7 8 8 9 10 10 10 10 9 9 9 8 8 9 8 7 6 5 5 5 5 6 7 7 8 8 8 7 7
2 2 2 3 3 4 5 4 3 2 1 1 2 2 3 3 4 4 5 5 6 7 7 6 5 4 4 4 4 4 3 2 4 6 6 5 5 4 5 5 4 4 4 4 5 6 6 6 7 7 7 7 7 7 8 8 7 7 6 5 4 4 4 4 4 3 3 2 2 2 4 5 6 7 8 9 9 9 9 9 9 8 8 8 7 7 6 7 7 5 5 5 5 5 5 6 7 7 7 7 7 6 5
2 2 2 3 4 5 5 4 2 1 1 2 3 3 4 4 4 5 5 6 7 8 7 6 5 3 3 3 3 2 2 3 5 6 5 4 4 4 5 5 4 3 4 4 5 5 6 6 6 6 6 6 6 7 7 6 6 5 5 4 4 4 5 4 4 3 2 0 2 4 5 6 7 7 8 8 8 8 8 8 7 7 7 7 7 7 6 5 5 5 6 6 7 6 6 7 7 7 8 8 8 6 6
2 2 3 3 4 5 5 4 2 1 3 3 4 4 4 5 5 6 7 7 8 9 8 6 5 3 3 2 2 2 3 4 5 6 5 4 4 4 4 4 4 3 4 5 5 5 6 6 6 6 5 5 5 6 6 5 5 4 4 4 4 5 5 4 3 2 2 3 4 5 6 7 7 7 8 8 7 7 7 7 7 7 7 7 7 8 6 5 5 6 7 8 8 8 7 7 7 8 9 9 9 8 8
1 2 3 4 5 5 4 2 1 3 4 4 4 5 5 6 6 8 8 9 9 9 8 6 4 2 2 2 1 3 4 4 5 5 5 4 4 4 4 4 4 3 4 5 5 6 6 6 6 5 4 4 5 6 6 5 5 5 4 4 4 5 4 3 2 2 3 4 5 5 6 6 6 7 7 7 7 7 7 7 7 7 7 8 8 8 6 6 6 7 8 8 9 9 8 8 8 8 9 9 9 9 9
2 2 3 4 5 5 3 2 3 4 5 5 5 6 6 7 8 8 9 9 9 9 9 7 4 2 2 1 2 4 5 5 4 4 5 5 5 4 5 5 5 4 5 5 6 6 7 6 5 5 4 5 6 6 6 6 5 5 5 4 4 4 2 1 1 1 3 3 4 5 6 6 7 7 7 7 7 7 6 7 7 7 8 8 8 7 6 6 7 7 8 8 9 10 9 9 9 8 8 9 9 9 9
2 3 4 5 5 4 3 4 6 6 7 7 7 8 8 8 9 9 10 10 10 10 9 7 4 2 1 1 3 5 6 6 4 4 5 5 6 6 6 6 6 6 6 6 6 6 6 6 5 5 5 5 6 6 6 5 5 5 4 4 3 3 2 1 1 2 3 4 5 6 7 7 7 7 7 6 6 6 7 7 7 8 8 8 8 8 7 7 7 8 8 9 9 10 10 10 9 9 9 9 9 9 9
4 5 6 6 5 5 6 7 8 8 8 8 8 8 9 9 10 10 10 11 10 10 9 7 4 2 0 2 4 6 6 5 4 3 4 5 6 6 5 5 6 6 6 6 6 5 5 5 5 5 4 5 5 5 5 5 5 4 4 4 4 4 3 3 3 4 5 5 6 6 7 7 6 6 6 6 6 7 7 8 8 8 8 8 8 8 8 8 7 8 8 8 9 9 10 10 10 9 9 9 9 9 9
6 6 6 6 5 6 8 8 8 8 8 9 9 9 10 10 10 11 11 11 11 10 9 6 3 2 0 2 4 6 5 5 4 4 4 5 5 5 4 5 5 5 5 5 5 5 6 6 6 5 4 4 5 5 5 5 5 4 4 4 4 4 3 4 4 6 6 6 6 6 6 5 5 5 5 6 6 7 8 8 8 8 8 8 8 8 8 9 9 8 8 8 9 9 9 10 10 10 10 10 10 10 10
7 7 6 6 6 8 8 8 8 8 9 9 9 10 10 11 11 11 11 10 10 9 7 4 2 1 1 2 4 5 4 4 4 4 4 4 4 5 5 4 4 4 4 5 5 5 6 6 6 5 5 4 5 5 5 5 4 4 3 3 3 3 4 5 6 7 7 7 7 6 5 4 4 5 6 6 7 8 8 8 8 8 8 8 8 8 8 9 9 10 10 9 9 9 10 10 10 10 10 11 11 11 11
6 6 6 7 8 9 8 8 8 9 9 9 10 10 10 11 11 10 10 10 9 8 5 3 2 1 2 3 4 4 4 4 4 4 4 4 4 4 5 4 4 4 4 4 4 5 5 5 5 5 5 5 5 5 5 4 3 2 2 3 4 5 6 7 8 8 8 7 6 6 5 4 4 5 6 7 7 8 7 7 7 7 7 7 8 8 9 9 10 10 10 10 10 10 10 10 11 11 11 11 11 11 11
6 6 7 8 8 8 8 8 8 9 9 10 10 10 10 11 10 10 9 8 7 6 4 3 3 2 2 3 4 4 4 4 4 4 4 3 3 4 4 4 4 3 4 4 4 4 4 5 5 6 5 5 5 4 3 2 0 2 3 5 6 7 8 8 8 8 7 6 6 6 6 5 5 5 6 7 7 7 7 7 7 7 8 8 8 9 9 10 10 11 11 11 11 11 11 11 11 11 11 11 11 10 10
7 8 8 7 7 8 8 8 9 9 10 10 10 11 11 10 10 9 7 6 6 5 4 3 3 3 2 3 4 4 3 3 3 3 3 3 3 3 3 3 3 3 3 3 4 4 4 5 5 5 5 5 4 3 2 2 3 4 6 7 8 8 8 8 8 7 6 6 6 6 6 6 6 5 6 6 6 6 6 7 7 7 8 8 9 9 10 10 11 11 11 11 11 11 11 11 11 11 11 11 11 10 10
8 8 7 6 7 8 8 8 9 10 10 11 11 11 11 10 8 6 5 5 4 4 3 3 3 4 3 3 3 3 3 3 3 3 3 3 3 3 3 3 3 4 4 4 4 5 5 5 5 5 4 4 3 2 2 4 5 6 7 7 8 7 7 6 6 6 6 6 6 6 6 6 6 5 5 6 6 6 7 7 7 8 8 9 10 10 10 11 11 11 11 11 10 10 11 11 11 11 10 11 11 10 11
7 6 6 7 7 7 8 9 9 10 10 11 11 11 10 8 6 5 5 5 5 4 4 4 4 4 4 4 3 3 3 4 4 4 4 4 4 5 5 5 5 5 5 6 6 5 6 5 5 5 4 3 1 2 4 5 6 6 7 7 7 6 5 5 5 4 5 5 5 5 5 5 5 5 6 6 6 7 7 8 8 8 9 9 10 10 10 10 10 10 10 10 10 10 10 10 11 10 10 10 10 10 10
7 6 6 6 7 7 8 9 9 10 10 11 11 11 9 6 5 4 5 5 5 4 4 4 4 4 4 4 4 4 4 5 5 4 4 5 5 6 6 5 5 6 6 6 5 5 5 5 5 5 4 2 3 5 6 6 6 7 7 7 6 5 4 3 3 3 3 4 4 5 5 5 6 6 7 7 7 8 8 8 9 8 9 9 9 9 9 9 9 8 8 9 9 9 9 9 9 9 9 8 8 9 9
6 6 6 6 7 7 8 9 10 10 10 11 10 9 7 5 4 4 4 5 5 4 3 3 3 3 3 3 3 4 4 4 4 4 4 5 5 5 4 4 4 5 5 4 4 3 4 4 3 2 1 4 6 7 8 8 8 8 6 5 3 2 2 3 3 3 3 4 4 4 5 5 6 6 7 8 8 8 8 8 8 8 8 8 8 8 10 12 12 10 9 8 8 7 7 7 7 7 7 6 7 7 8
5 5 6 6 7 8 9 10 10 10 10 10 9 7 5 4 3 3 3 3 4 4 3 3 3 3 2 2 3 3 3 3 3 3 4 4 4 4 4 4 4 3 3 3 3 3 3 3 3 4 6 7 8 9 9 9 8 6 4 3 2 1 2 3 3 3 4 4 4 4 5 6 6 6 7 7 8 8 9 8 8 8 7 7 7 8 10 12 13 13 12 10 7 6 6 5 5 5 5 6 6 7 7
6 6 7 8 8 9 10 10 10 10 10 9 8 6 4 4 3 3 3 3 3 3 3 3 3 3 2 2 2 3 3 3 2 3 3 3 4 3 3 3 3 3 3 3 4 4 5 5 6 8 8 9 10 10 9 8 6 4 2 1 1 2 3 3 3 3 3 3 3 4 5 5 6 6 6 7 8 8 8 9 8 8 7 6 7 9 11 12 12 13 12 11 8 5 4 3 4 4 5 6 6 7 7
7 8 8 9 10 10 11 11 10 10 9 8 6 4 4 4 4 3 3 3 3 3 2 2 2 2 1 2 3 3 3 3 2 2 3 3 4 4 3 3 3 3 3 4 4 5 6 7 8 9 9 10 10 9 7 5 3 1 0 1 2 3 3 3 3 3 3 3 3 3 4 6 6 7 7 7 7 8 8 8 8 7 6 6 8 10 11 12 12 12 12 11 9 6 4 3 3 4 5 6 6 7 8
9 9 10 10 11 11 11 10 10 9 8 6 5 4 4 4 4 4 4 3 2 1 2 2 2 2 2 2 3 3 3 2 2 2 2 3 4 5 5 5 5 5 4 5 5 5 7 8 8 9 9 9 7 5 4 2 1 1 2 2 3 4 4 4 3 3 3 3 3 4 5 6 7 7 7 7 7 8 8 8 7 7 7 7 9 11 12 12 12 12 12 11 10 9 6 4 4 4 5 6 7 7 8
11 10 10 10 11 11 10 10 9 8 6 4 4 4 4 4 4 4 3 2 0 2 2 2 2 3 2 2 2 2 2 2 2 2 3 3 4 4 5 5 5 5 5 5 6 7 8 8 8 8 7 5 4 3 1 1 1 2 2 3 4 4 4 4 4 3 3 4 5 6 6 6 6 7 7 7 7 7 7 7 7 7 7 8 9 11 12 12 12 12 12 11 11 11 8 6 5 5 5 6 7 8 9
11 11 11 10 10 9 9 9 8 6 3 2 3 3 3 3 3 3 2 1 2 3 3 4 4 4 3 3 3 3 3 4 4 4 4 4 4 4 4 4 5 5 5 6 6 7 7 7 6 5 4 3 2 1 1 1 2 2 3 3 4 4 4 4 4 4 4 5 6 6 6 6 6 7 6 6 6 7 8 8 8 8 8 8 9 11 12 12 12 12 12 13 13 13 10 8 7 7 7 7 8 9 10
11 11 10 9 9 8 8 7 6 3 2 2 2 2 2 2 2 2 2 2 2 3 4 5 5 5 5 5 5 4 4 4 4 5 5 5 4 5 5 5 6 6 6 6 6 6 6 5 4 3 2 2 2 2 2 2 2 3 4 4 4 4 4 4 4 4 5 6 6 6 6 6 6 6 7 7 7 7 7 7 7 8 8 8 9 11 11 12 12 13 13 14 15 15 12 9 8 8 8 9 9 10 11
11 11 10 10 9 8 7 5 3 1 1 1 1 2 2 2 2 2 2 2 1 1 2 4 5 5 5 5 4 4 4 4 4 4 5 5 6 6 7 7 7 7 7 6 6 5 4 3 2 2 2 2 2 2 1 2 3 4 5 5 5 4 4 4 4 4 5 5 6 6 5 6 6 6 7 7 8 7 7 7 7 8 7 8 9 11 11 12 13 14 15 15 16 17 13 10 9 9 9 9 9 10 11
11 11 10 9 8 7 6 4 2 1 1 1 2 2 3 3 3 3 2 2 1 1 1 2 3 4 4 4 4 4 3 3 3 4 5 6 6 7 7 8 8 8 8 7 6 4 3 2 2 2 2 2 2 2 2 3 4 5 6 5 5 4 3 3 4 4 4 4 5 4 5 6 6 7 7 7 7 7 7 7 7 7 6 7 9 11 12 13 14 15 16 17 18 17 13 10 9 10 10 10 10 11 12
Wind_Direction
97 111 123 128 130 131 131 129 129 132 133 131 129 128 129 129 133 153 137 131 137 157 162 167 178 201 206 200 175 111 82 76 86 102 112 119 125 145 143 156 163 161 179 198 206 198 187 177 169 168 172 170 166 161 162 161 158 154 153 155 158 161 151 145 143 146 148 143 136 137 163 175 168 156 164 175 182 164 144 130 121 115 112 112 122 162 189 198 198 197 191 198 209 214 202 198 282 316 306 295 284 282 326
88 102 114 121 125 127 127 127 127 130 122 114 113 122 127 131 145 210 201 177 162 156 155 168 185 206 202 191 174 155 135 124 125 139 137 143 155 176 164 166 176 189 200 209 213 206 190 177 171 177 181 176 171 170 169 165 162 159 159 162 164 164 153 147 146 150 155 158 156 155 168 182 156 119 132 136 139 126 126 122 120 120 125 139 163 188 190 198 207 202 187 191 207 222 193 159 138 24 315 304 300 310 327
67 90 102 109 115 119 119 122 124 123 114 110 115 146 136 147 172 208 211 202 177 146 149 170 192 206 196 188 183 180 172 171 174 173 162 164 170 177 177 183 190 195 198 202 206 205 194 183 178 189 192 186 180 179 172 167 164 163 164 166 167 165 157 153 154 161 168 168 160 149 143 132 96 57 87 109 123 131 132 126 121 122 132 149 170 187 179 182 203 219 171 162 157 357 320 155 148 126 289 286 285 301 324
46 76 94 105 113 118 120 124 128 128 132 146 176 184 162 172 188 201 202 199 185 146 156 176 195 204 193 190 191 193 187 184 180 176 177 183 185 183 178 182 189 194 192 198 204 203 194 188 186 191 192 189 184 180 174 170 168 166 167 169 169 167 162 161 163 171 174 164 148 152 155 145 130 109 104 118 139 150 136 125 117 117 120 127 140 150 110 74 58 66 47 58 65 54 355 325 260 148 218 253 266 286 334
40 65 90 104 114 122 127 132 137 143 151 161 173 176 177 184 190 186 191 197 203 201 195 193 194 197 193 193 195 200 198 191 184 182 193 198 199 194 184 185 190 195 191 197 204 208 198 194 191 188 187 184 179 175 175 174 172 170 170 171 170 168 166 167 172 181 178 165 152 162 159 152 143 136 126 141 165 166 130 116 113 109 97 75 53 55 52 43 45 78 64 59 66 76 36 338 321 330 276 269 279 293 343
43 49 83 104 117 123 126 133 144 160 162 160 159 167 181 186 183 175 193 202 207 208 215 212 207 200 196 195 198 203 204 199 194 195 198 198 198 199 196 194 196 201 197 197 201 216 212 204 194 187 181 175 172 169 168 171 174 174 172 171 171 170 170 172 179 187 180 171 163 161 156 156 154 142 134 148 162 134 92 93 102 106 96 80 44 29 39 31 21 33 42 41 43 66 85 59 349 340 341 328 311 304 333
57 43 60 83 103 115 128 145 163 173 166 159 160 173 188 192 191 188 199 204 206 207 215 218 218 215 208 203 202 205 207 204 202 203 202 201 200 201 201 201 202 203 202 200 201 206 208 199 189 187 180 173 169 166 164 170 176 179 173 173 174 173 173 177 182 189 183 176 168 156 157 163 161 137 137 137 120 72 50 43 55 91 108 120 124 97 59 38 23 20 22 18 20 30 69 82 63 2 342 326 307 296 305
74 61 55 58 80 132 160 177 184 178 165 167 176 184 192 198 200 200 203 204 205 208 212 214 215 217 217 214 210 207 209 208 207 209 208 206 204 206 209 212 215 215 213 213 214 215 211 195 182 182 180 178 173 167 167 170 173 173 175 179 180 177 177 179 183 187 183 177 170 157 165 170 165 134 134 119 87 56 29 8 351 347 128 147 151 155 160 171 173 161 153 128 77 50 44 65 70 29 330 310 295 290 293
102 96 92 99 140 184 188 187 178 153 159 172 186 192 198 200 202 204 205 205 205 208 210 211 212 214 216 217 216 213 211 209 209 210 209 208 209 214 222 227 233 243 247 249 251 260 256 222 188 181 189 191 186 175 170 168 169 174 183 187 186 181 180 181 182 180 176 173 169 161 165 167 159 139 126 108 87 62 27 343 314 294 257 202 185 182 181 178 174 167 162 144 118 94 61 61 107 141 276 292 294 297 299
151 143 142 153 170 186 149 105 91 92 122 167 199 210 210 207 205 207 207 206 206 210 211 211 213 216 217 218 219 219 217 213 210 207 206 206 209 213 218 222 227 236 244 246 246 250 246 226 201 194 195 195 190 182 175 175 179 183 187 189 189 185 182 182 181 173 164 162 163 162 162 159 154 150 139 128 118 105 84 294 282 279 267 239 208 187 170 161 155 150 135 132 137 140 128 159 215 195 187 223 285 309 311
163 155 157 155 142 82 76 83 90 101 105 126 223 230 226 218 211 210 209 207 207 211 211 211 213 216 219 221 222 222 222 219 213 205 203 205 208 211 213 214 216 218 222 224 225 227 230 218 202 197 194 187 183 184 183 182 181 179 182 188 191 187 182 181 179 172 160 154 155 159 159 157 156 161 157 151 148 152 166 181 195 218 240 258 57 57 62 82 165 184 195 199 188 164 146 162 226 225 185 163 161 315 304
138 137 150 141 124 100 91 104 118 124 111 111 234 240 231 228 224 221 213 209 209 213 212 212 213 215 218 221 223 224 224 223 218 207 204 206 211 215 213 213 214 214 214 216 218 221 227 222 207 191 189 182 178 182 183 180 177 176 182 186 188 184 180 178 176 175 165 156 154 159 160 160 161 165 166 165 166 170 165 160 155 156 145 115 77 40 352 278 237 208 206 206 198 163 153 174 207 225 179 124 46 302 287
142 152 164 154 140 133 146 160 159 146 136 155 217 242 228 285 295 260 224 214 215 218 217 217 218 218 219 222 225 226 225 225 222 215 209 209 214 218 216 216 216 216 215 215 215 216 223 224 212 184 187 183 180 179 179 178 179 182 184 183 180 174 172 171 171 172 169 164 161 163 165 166 167 170 174 175 174 170 155 145 139 132 86 62 55 36 312 278 267 285 302 320 334 37 156 195 203 208 162 148 224 274 274
163 169 173 162 151 147 161 173 178 170 173 185 200 216 204 280 288 285 256 228 223 225 223 223 224 225 225 226 228 231 226 225 224 224 216 214 215 219 216 217 218 219 218 218 217 214 217 217 209 189 187 185 183 180 177 178 182 187 182 177 171 161 155 156 159 160 164 169 174 177 179 179 178 177 182 178 168 149 130 107 66 24 15 17 23 30 7 350 6 19 6 360 359 3 4 351 322 291 209 192 205 232 261
176 178 173 165 157 154 157 167 185 193 193 194 195 191 193 205 221 234 237 235 231 225 227 230 233 236 235 235 235 237 231 227 224 228 223 221 219 220 215 216 218 218 220 221 221 216 214 212 205 191 181 177 178 182 176 176 179 183 176 170 163 150 139 137 141 146 155 168 182 191 192 189 184 176 172 161 141 113 83 48 22 4 0 2 9 25 38 45 45 41 21 4 355 354 356 346 327 308 296 261 226 218 265
182 181 171 163 157 156 156 166 184 202 201 202 201 197 194 200 206 208 220 264 327 2 337 300 280 273 259 250 245 244 238 232 229 229 229 227 224 222 218 218 219 218 220 223 223 218 215 211 203 184 167 162 167 174 169 170 172 174 169 163 154 143 137 134 136 142 154 165 175 186 186 180 169 156 142 123 95 65 41 22 6 348 342 345 353 3 11 19 26 34 32 14 352 336 328 316 306 306 301 293 285 327 308
181 180 168 160 158 161 160 159 162 191 213 220 217 202 192 195 203 193 5 357 354 6 358 347 331 308 283 267 257 252 248 243 238 235 235 233 230 226 223 222 221 219 217 220 223 220 215 212 204 185 165 154 150 151 153 160 165 167 163 156 148 143 141 142 147 157 161 162 162 167 163 152 135 115 96 78 63 48 34 19 360 341 340 344 350 353 356 358 0 5 8 2 347 325 312 307 312 320 311 309 313 324 297
172 181 170 161 157 158 139 123 114 168 252 260 260 177 87 53 24 20 9 358 353 354 341 331 317 299 285 279 275 271 266 258 251 245 242 239 236 230 227 226 224 221 217 217 219 218 214 210 203 192 173 159 148 142 144 151 159 162 157 152 148 149 148 151 158 169 163 154 147 146 135 116 97 83 76 71 65 58 50 38 19 3 3 3 1 357 355 354 353 355 356 351 342 335 333 332 329 325 315 313 311 310 297
85 178 150 130 116 102 90 83 72 16 350 346 359 25 36 30 19 8 1 351 342 329 325 318 308 294 290 290 290 288 283 275 268 259 252 246 241 235 233 231 228 224 219 217 216 215 210 205 199 194 179 167 157 151 151 153 157 158 155 153 153 153 154 157 161 161 150 140 131 123 110 97 87 79 78 78 78 72 62 49 34 20 17 13 9 5 2 357 352 350 348 344 338 334 333 328 322 313 306 303 303 302 298
21 31 30 29 33 44 58 57 46 23 20 16 16 23 23 15 3 353 351 343 332 322 330 328 320 309 305 302 300 296 292 288 283 277 266 258 250 242 238 236 232 228 221 218 214 211 206 202 197 192 181 173 167 162 161 160 159 158 157 156 154 155 159 160 155 144 135 124 113 100 93 90 87 82 77 72 66 55 45 35 26 17 10 6 3 0 356 350 345 341 339 336 331 326 322 317 310 303 300 299 299 298 296
25 39 43 37 33 38 46 44 35 23 25 24 23 23 13 359 346 341 341 338 337 338 345 344 337 325 317 312 309 305 301 297 293 288 281 273 264 254 246 241 236 231 225 220 215 208 204 200 196 190 180 173 169 167 165 162 160 158 157 155 156 162 164 157 145 129 119 109 100 89 84 84 84 77 60 50 42 35 27 20 13 8 356 348 344 340 336 334 334 334 331 329 324 319 314 309 305 303 301 299 297 295 293
44 55 65 64 60 56 54 47 35 28 26 23 19 15 359 343 336 340 344 349 352 354 355 353 347 335 325 320 318 315 312 309 304 298 292 286 278 268 258 248 240 234 229 224 218 210 205 200 194 185 176 170 167 164 163 161 158 155 153 153 156 164 159 149 137 124 109 99 95 89 82 78 73 65 51 41 33 25 18 9 0 352 339 333 329 325 324 325 326 327 325 322 318 314 309 305 301 298 296 294 292 288 285
73 81 86 84 78 70 63 52 40 31 24 14 3 353 339 336 340 352 357 2 5 3 1 359 353 341 332 328 326 324 321 318 315 310 303 296 287 278 269 258 247 238 233 227 221 214 207 200 191 178 170 166 164 162 160 157 154 149 147 146 147 147 142 138 132 124 109 103 99 93 78 70 63 57 49 42 32 20 10 358 346 334 327 322 318 316 317 319 320 321 317 313 309 304 301 297 294 291 289 288 286 281 278
101 98 92 85 76 66 57 48 39 28 18 3 346 331 327 335 351 4 8 12 12 8 4 0 354 344 336 332 330 327 323 320 318 316 311 305 296 287 280 272 261 249 239 231 223 215 206 196 185 173 164 161 161 158 153 147 142 137 135 133 130 124 120 120 119 116 110 106 96 80 65 57 51 46 39 33 24 9 355 344 334 326 320 315 313 311 311 311 311 310 305 300 296 292 290 288 287 286 287 285 282 279 276
107 93 83 75 67 59 51 43 34 22 10 355 338 325 326 341 359 10 14 16 13 8 3 359 353 345 337 331 327 324 320 317 316 316 314 312 307 300 295 291 284 270 254 239 224 209 197 186 175 164 156 154 153 150 144 137 128 122 120 118 116 111 106 101 100 103 102 92 73 59 53 47 39 29 21 14 6 355 342 332 325 318 312 308 305 303 302 301 298 295 290 286 284 283 283 282 283 284 284 282 280 279 278
88 79 73 68 63 56 47 37 26 14 0 348 336 330 339 353 4 10 15 14 11 4 360 356 350 342 333 326 322 319 316 314 314 315 318 320 320 317 315 312 309 302 282 244 203 182 170 162 151 132 124 125 129 130 127 122 117 111 108 104 99 93 92 89 85 80 74 65 57 52 48 40 28 14 3 355 347 337 326 316 309 302 297 295 293 292 291 289 285 280 278 279 281 282 283 283 283 281 281 280 280 279 278
70 68 66 63 59 53 43 29 14 359 349 342 339 344 357 2 5 8 13 10 5 356 355 352 346 337 328 322 319 317 314 313 315 320 329 337 342 344 341 342 348 3 21 62 100 120 127 122 111 96 92 95 100 102 99 100 101 100 97 91 82 76 80 78 73 67 61 58 56 52 46 36 19 359 346 336 326 316 306 298 292 288 286 285 285 283 280 277 273 271 272 276 281 283 283 282 280 277 276 277 278 278 277
72 67 62 56 52 46 36 20 0 343 339 341 350 2 7 5 3 6 10 6 359 353 353 348 341 331 325 321 319 317 315 314 319 337 355 8 12 10 3 3 10 23 30 40 56 76 88 94 96 95 91 88 88 90 88 88 90 93 91 87 82 76 74 71 68 66 63 61 58 52 43 30 13 353 336 320 308 299 292 288 285 283 283 281 279 275 270 267 267 268 272 276 279 281 279 278 278 277 274 274 275 274 275
82 73 62 52 43 34 21 3 346 334 336 346 0 10 10 6 2 2 6 3 358 353 351 344 336 328 324 321 319 318 315 318 330 10 28 37 35 24 16 15 21 30 31 34 40 51 66 75 82 88 90 89 88 88 91 90 88 90 89 88 85 79 71 68 67 67 66 61 54 45 29 13 358 345 331 317 305 296 290 286 283 282 280 277 273 269 266 266 268 271 274 276 277 275 275 274 274 274 273 272 271 270 271
81 72 60 47 33 16 358 344 332 322 324 345 14 22 16 8 0 358 0 359 356 351 346 337 330 325 323 321 319 317 316 322 345 45 55 57 53 39 30 29 33 39 39 38 39 45 56 65 72 75 80 85 87 88 93 94 93 91 90 85 79 71 66 64 61 58 54 45 36 27 10 354 339 327 318 309 300 293 288 284 281 278 275 272 269 267 267 269 271 273 276 277 275 274 272 271 270 269 270 269 269 269 268
65 57 47 35 20 0 343 329 317 300 275 199 114 62 37 19 5 359 358 356 350 344 337 330 324 321 318 317 315 315 314 324 6 77 80 77 72 59 49 44 45 49 50 48 48 51 54 61 68 73 77 83 88 92 98 101 101 92 86 77 70 66 64 61 57 52 44 33 18 4 345 328 317 308 301 294 288 284 281 278 276 273 270 268 266 266 267 270 272 274 276 275 273 271 270 268 267 265 266 267 267 267 265
54 46 36 22 4 345 330 318 307 294 283 259 84 62 48 31 16 6 0 353 344 333 325 319 315 313 311 310 311 312 315 333 51 93 91 89 87 85 75 67 63 64 65 64 62 62 63 66 69 73 78 84 90 93 93 96 96 90 83 78 75 73 70 67 63 60 52 36 6 338 319 309 303 298 291 285 280 277 274 271 270 268 266 264 264 265 268 270 271 271 272 272 271 269 269 267 265 263 262 263 264 264 264
56 45 28 7 345 330 319 310 301 293 300 357 41 42 38 28 17 7 360 348 334 322 316 312 309 306 306 307 311 315 321 346 73 98 99 102 105 108 100 91 82 78 78 79 79 78 76 74 72 67 66 68 73 75 75 79 82 85 82 82 83 85 88 90 93 94 93 79 27 344 320 307 297 289 283 277 272 268 266 265 264 263 262 262 263 265 267 268 269 269 268 269 269 269 269 268 266 262 261 261 262 263 264
59 46 17 348 331 321 313 304 292 269 245 133 76 54 40 28 15 6 353 340 326 317 313 310 307 306 308 312 317 323 331 6 87 103 109 114 118 117 110 103 95 89 89 90 89 88 83 79 73 68 65 66 68 70 70 72 74 80 82 84 88 93 97 98 95 94 84 62 26 344 311 293 282 275 270 265 262 260 260 260 261 261 261 262 264 265 266 266 266 268 268 268 268 268 269 269 267 264 263 262 262 264 265
49 29 2 339 324 315 308 297 277 237 200 135 87 60 40 26 13 1 346 334 325 320 315 310 306 306 310 314 322 332 346 52 92 101 109 115 117 114 112 111 108 105 102 99 96 92 88 84 79 75 72 72 74 75 75 75 78 82 88 93 98 104 101 96 91 85 70 49 360 303 282 272 265 262 260 259 258 258 259 259 260 261 262 264 266 267 266 265 266 267 269 270 270 269 270 271 271 269 267 265 264 266 267
30 2 345 328 316 308 303 295 281 226 101 65 48 37 27 16 5 355 344 336 330 325 317 310 303 301 307 315 328 355 29 75 93 101 110 117 118 116 114 113 112 110 107 103 101 98 92 87 83 80 77 77 78 80 82 84 87 92 99 106 110 108 101 98 95 92 88 116 258 258 255 253 253 253 254 257 259 262 262 262 262 264 266 269 272 275 276 276 277 279 280 280 279 279 278 278 278 277 275 273 272 272 272
12 340 325 313 307 302 302 303 313 42 54 47 36 26 16 6 358 351 345 338 332 325 317 309 302 302 311 325 357 48 60 80 96 109 115 118 117 114 107 103 103 104 105 103 99 96 91 87 84 83 83 82 82 83 82 83 85 90 95 99 99 96 99 103 112 128 177 216 232 240 242 245 247 251 255 260 264 266 267 268 269 272 276 280 283 286 287 289 290 290 289 289 288 287 286 286 285 284 283 282 281 281 281
336 311 304 302 300 300 302 313 8 49 50 42 32 20 10 1 354 349 343 336 330 323 317 310 303 308 319 338 55 85 82 85 94 111 114 113 109 102 94 92 94 100 100 99 93 88 85 83 81 80 79 78 77 76 74 74 74 74 78 80 82 83 93 107 137 178 210 225 234 241 244 248 252 257 260 264 267 269 271 274 278 282 285 287 289 290 290 291 291 290 289 289 290 290 289 288 286 286 286 285 284 284 284
294 294 297 299 301 305 317 15 50 47 40 32 22 13 4 356 349 344 338 333 328 322 316 310 304 311 323 359 92 99 96 93 94 105 107 106 102 95 91 89 88 88 87 87 85 82 79 78 77 75 73 73 73 72 71 71 69 66 66 68 71 74 81 96 178 238 242 245 248 252 255 257 260 262 264 266 268 271 274 278 282 285 286 287 288 288 288 288 288 288 288 288 289 289 289 288 287 286 285 285 284 284 283
305 306 307 310 315 332 19 43 45 38 29 20 13 5 357 350 344 339 335 331 327 321 315 310 306 315 325 85 108 105 105 105 106 103 103 101 98 94 91 89 87 83 82 82 82 80 78 78 79 78 77 76 75 73 71 69 66 61 59 59 57 51 38 9 323 295 277 268 263 261 261 262 262 263 265 267 271 275 278 281 283 284 285 285 286 286 287 287 287 287 287 288 288 289 289 289 289 288 287 285 285 284 284
322 319 321 328 344 18 39 43 38 30 21 13 5 358 351 345 340 336 332 328 324 318 314 311 308 314 298 125 119 114 116 118 119 109 103 99 97 93 91 90 90 89 90 90 90 90 91 90 90 89 88 85 81 77 71 65 60 54 49 43 35 21 4 341 318 298 285 277 270 266 263 262 262 263 266 270 274 277 279 281 281 282 282 283 284 286 287 288 287 287 287 287 288 288 289 289 290 289 288 287 285 284 284
330 329 335 349 14 38 41 38 30 22 14 5 358 351 345 340 336 332 328 325 321 317 315 312 309 312 190 127 121 118 121 120 113 101 97 96 95 94 93 95 97 100 103 105 107 110 111 111 108 105 101 94 86 78 67 58 50 40 31 22 11 354 332 310 293 282 276 272 269 266 262 260 261 264 268 272 275 277 278 278 279 279 280 281 283 286 288 289 289 289 288 288 288 288 289 289 289 288 287 286 285 284 283
336 340 353 15 34 39 35 28 21 13 5 358 351 345 339 335 331 327 324 322 320 317 317 316 318 340 88 106 108 110 110 105 97 93 91 92 95 99 103 106 109 116 120 123 124 124 124 121 116 109 101 90 80 71 61 51 40 28 12 353 332 310 291 277 270 266 264 263 261 259 257 257 261 266 270 272 273 274 275 276 277 278 280 282 285 287 288 289 289 290 290 289 289 288 287 287 286 285 284 283 282 282 281
346 359 20 32 36 32 25 18 11 4 356 350 344 338 333 329 326 324 323 322 321 322 325 334 356 30 79 91 94 97 98 97 95 95 96 98 104 111 116 121 127 133 135 134 130 126 123 117 109 98 87 79 73 68 61 52 36 2 321 295 280 272 263 258 256 257 257 257 255 254 256 260 264 267 270 271 272 272 274 276 278 280 283 285 287 288 289 288 288 288 288 287 286 285 284 283 282 282 281 280 279 279 278
9 26 33 33 29 23 16 9 2 354 348 341 336 331 327 324 323 322 324 326 329 335 349 2 13 21 70 89 95 100 101 104 105 108 113 118 124 127 130 134 138 139 133 126 120 116 110 103 97 91 87 83 80 78 77 75 265 258 256 255 255 255 253 252 252 254 255 255 256 258 263 267 269 270 271 271 272 273 275 277 280 282 285 287 288 288 287 286 286 285 284 283 282 281 280 280 279 278 277 277 276 275 274
30 35 31 26 19 13 6 359 352 345 339 334 329 325 323 322 322 324 329 335 344 358 14 18 12 4 40 80 98 106 107 110 113 119 124 129 130 128 128 127 123 111 103 100 99 97 94 94 95 97 99 99 100 102 130 195 226 237 241 244 246 249 250 252 254 254 254 257 261 266 270 272 273 272 272 272 273 276 278 279 281 284 285 287 286 286 284 283 282 280 279 279 278 277 276 275 275 275 274 273 272 272 271
36 33 25 16 9 3 356 349 342 337 331 328 325 323 322 322 325 332 343 353 4 21 37 35 19 3 17 44 75 91 91 91 90 91 96 98 95 90 85 79 75 71 69 68 68 70 75 80 85 89 94 99 110 141 196 218 228 234 239 244 247 250 253 254 255 254 257 260 264 268 270 272 274 276 276 276 277 279 281 281 282 284 284 284 283 282 280 279 278 277 276 274 274 273 272 271 271 270 271 271 271 271 271
32 25 16 7 360 352 345 339 333 328 325 323 323 321 321 324 332 348 0 9 16 31 52 53 39 17 23 30 41 53 61 63 61 55 56 59 62 62 59 55 53 53 54 53 53 53 55 56 56 54 51 46 25 258 243 240 241 243 248 251 253 255 255 255 255 258 262 265 267 268 270 273 278 282 283 283 283 282 283 283 282 282 281 280 278 277 277 276 275 275 274 272 271 270 270 269 269 269 270 271 272 274 275
23 15 5 356 348 340 334 329 325 322 321 321 320 319 321 329 345 4 10 14 17 23 46 58 55 37 34 36 40 48 55 57 56 53 53 56 59 61 59 57 55 54 56 55 53 52 51 51 49 43 27 350 293 267 259 255 254 253 254 254 254 253 253 257 261 268 271 271 272 274 276 279 283 286 287 287 286 284 282 281 280 279 278 276 274 273 272 271 270 271 272 272 271 270 271 271 272 273 275 276 278 281 283
9 360 349 340 333 328 324 320 319 318 319 318 317 316 322 337 360 13 15 18 20 23 42 67 75 59 46 43 45 52 57 59 60 62 63 66 69 73 75 75 74 74 75 76 76 77 74 74 76 82 222 243 246 248 251 252 252 251 248 244 242 246 260 269 274 277 279 280 282 286 287 287 287 286 285 285 284 284 281 279 278 278 276 275 273 272 272 271 270 270 273 275 277 278 280 282 284 286 289 291 292 292 293
349 339 332 326 322 318 316 315 315 316 316 314 313 314 327 349 9 15 16 19 25 32 50 76 91 87 68 55 56 65 68 70 73 78 80 83 87 91 96 99 103 106 109 113 118 123 127 139 163 194 216 227 234 240 243 245 246 243 234 225 229 269 284 285 284 284 286 289 292 294 295 293 290 286 282 280 280 280 280 279 278 277 276 276 275 275 275 276 276 277 279 281 283 287 291 295 299 300 300 299 299 298 296
331 324 321 318 316 313 312 312 312 313 312 312 312 320 339 358 11 14 15 19 28 39 57 77 94 102 100 87 78 80 84 85 88 94 100 104 108 112 120 129 138 144 149 159 167 172 175 185 196 208 217 225 231 236 239 239 238 229 223 239 304 306 295 291 291 291 292 292 293 296 294 291 287 284 280 278 276 276 277 278 278 278 278 278 278 279 280 282 284 286 288 290 293 297 299 300 299 298 297 297 296 294 291
320 318 316 314 312 310 310 310 310 310 309 310 316 336 356 5 7 9 14 22 31 48 72 92 103 108 108 87 78 76 79 82 86 95 111 123 134 145 158 170 180 186 192 197 198 197 200 204 208 213 219 225 230 233 231 227 221 216 315 336 322 306 298 296 296 295 290 291 293 295 289 284 282 280 279 279 277 276 277 277 278 280 280 280 281 283 285 287 290 293 296 301 306 310 306 299 294 293 294 294 292 289 287
316 313 311 309 308 307 306 305 305 303 304 312 331 1 8 7 6 7 14 22 35 78 116 122 125 129 113 88 77 80 84 90 98 108 131 152 164 173 182 191 199 205 210 212 212 213 215 216 218 219 222 224 225 220 213 205 195 18 351 329 313 301 297 294 292 290 290 294 295 290 285 282 281 280 279 279 279 280 280 280 281 281 282 283 285 288 291 293 296 299 303 308 313 317 312 305 298 294 293 292 291 288 287
307 304 304 304 303 302 301 300 298 297 304 325 359 15 13 10 8 9 7 3 307 176 159 154 152 149 127 113 109 122 136 144 148 154 172 183 188 189 195 202 209 213 215 217 219 221 224 225 224 223 219 215 207 194 173 92 24 0 334 315 301 292 288 283 281 284 291 292 289 284 283 283 282 280 280 280 281 284 285 285 285 285 286 288 291 293 295 297 300 305 310 313 317 319 315 310 303 297 295 292 290 288 286
300 300 300 299 299 298 296 294 292 293 311 355 22 19 11 9 11 7 344 293 229 196 178 170 165 157 150 153 164 175 179 178 177 181 190 197 203 205 211 217 221 224 223 222 222 224 226 226 223 216 202 186 161 115 69 34 4 337 313 299 289 283 280 280 282 290 291 288 284 282 282 281 281 281 283 284 286 287 287 288 289 290 291 292 294 297 298 302 306 311 315 317 318 319 316 311 304 299 295 291 288 285 282
298 298 297 296 295 293 291 289 290 298 344 24 29 12 359 357 359 348 308 271 236 203 182 172 167 165 171 177 183 187 191 190 187 186 194 201 207 214 220 225 229 232 232 230 226 223 220 215 207 187 159 127 96 70 45 11 335 312 296 287 281 277 280 286 290 293 290 287 285 284 284 283 284 285 287 288 288 289 289 291 292 294 294 294 296 300 303 307 312 316 318 318 317 317 313 307 302 296 292 288 284 280 277
297 296 295 294 292 291 292 295 304 341 13 14 1 348 342 339 333 317 295 282 265 223 184 173 170 171 176 179 180 179 182 183 184 184 191 199 208 216 222 227 230 234 236 236 232 219 206 193 172 137 110 89 72 53 18 333 310 298 290 286 282 280 282 285 286 286 284 284 284 285 286 287 288 289 290 290 290 290 292 293 295 296 296 297 300 304 309 313 317 318 318 317 315 314 310 304 298 292 287 284 280 277 273
295 294 293 292 292 293 299 308 324 344 343 336 334 335 333 326 316 301 292 295 299 289 226 196 187 185 180 177 174 172 170 174 181 188 192 200 208 217 223 226 229 232 234 235 231 214 183 149 116 94 83 72 57 23 330 307 298 293 289 286 283 279 278 278 278 277 277 277 278 280 285 288 290 291 292 293 293 293 295 296 297 297 297 302 306 310 314 317 318 318 317 315 313 311 306 300 293 288 284 281 278 275 273